OK,77,55,922,77,2014-10-01T01:40:00,0,28072692,201908
OK,77,55,922,77,2014-10-01T01:45:00,0,28073139,201908
OK,77,55,922,77,2014-10-01T01:50:00,0,28073587,201908
OK,77,55,922,77,2014-10-01T01:55:00,0,28073905,201908
OK,77,55,922,77,2014-10-01T02:00:00,0,28074354,201908
OK,77,55,922,77,2014-10-01T02:05:00,0,28074795,201908
OK,77,55,922,77,2014-10-01T02:10:00,0,28075243,201908
OK,77,55,922,77,2014-10-01T02:15:00,0,28075692,201908
OK,77,55,922,77,2014-10-01T02:20:00,0,28076075,201908
OK,77,55,922,77,2014-10-01T02:25:00,0,28076524,201908
OK,77,55,922,77,2014-10-01T02:30:00,0,28076973,201908
OK,77,55,922,77,2014-10-01T02:35:00,0,28077422,201908
OK,77,55,922,77,2014-10-01T02:40:00,0,28077825,201908
OK,77,55,922,77,2014-10-01T02:45:00,0,28078274,201908
OK,77,55,922,77,2014-10-01T02:50:00,0,28078719,201908
OK,77,55,922,77,2014-10-01T02:55:00,0,28079168,201908
OK,77,55,922,77,2014-10-01T03:00:00,0,28079610,201908
OK,77,55,922,77,2014-10-01T03:05:00,0,28080059,201908
OK,98,43,922,98,2014-10-01T03:10:00,2,28080393,201908
OK,108,39,922,108,2014-10-01T03:15:00,1,28080842,201908
OK,108,39,922,108,2014-10-01T03:20:00,0,28081291,201908
OK,108,39,922,108,2014-10-01T03:25:00,0,28081738,201908
OK,108,39,922,108,2014-10-01T03:30:00,0,28082187,201908
OK,140,30,922,140,2014-10-01T03:35:00,1,28082620,201908
OK,121,35,922,121,2014-10-01T03:40:00,2,28083052,201908
OK,103,41,922,103,2014-10-01T03:45:00,1,28083501,201908
OK,103,41,922,103,2014-10-01T03:50:00,0,28083950,201908
OK,103,41,922,103,2014-10-01T03:55:00,0,28084391,201908
OK,103,41,922,103,2014-10-01T04:00:00,0,28084816,201908
OK,128,33,922,128,2014-10-01T04:05:00,1,28085265,201908
OK,128,33,922,128,2014-10-01T04:10:00,0,28085710,201908
OK,82,52,922,82,2014-10-01T04:15:00,1,28086159,201908
OK,82,52,922,82,2014-10-01T04:20:00,0,28086601,201908
OK,82,52,922,82,2014-10-01T04:25:00,0,28087050,201908
OK,117,36,922,117,2014-10-01T04:30:00,2,28087495,201908
OK,117,36,922,117,2014-10-01T04:35:00,2,28087944,201908
OK,75,57,922,75,2014-10-01T04:40:00,3,28088368,201908
OK,91,47,922,91,2014-10-01T04:45:00,6,28088817,201908
OK,89,48,922,89,2014-10-01T04:50:00,5,28089247,201908
OK,118,36,922,118,2014-10-01T04:55:00,3,28089696,201908
OK,83,51,922,83,2014-10-01T05:00:00,6,28090145,201908
OK,84,51,922,84,2014-10-01T05:05:00,9,28090494,201908
OK,89,48,922,89,2014-10-01T05:10:00,7,28090938,201908
OK,101,42,922,101,2014-10-01T05:15:00,6,28091387,201908
OK,117,36,922,117,2014-10-01T05:20:00,9,28091804,201908
OK,119,36,922,119,2014-10-01T05:25:00,7,28092253,201908
OK,107,40,922,107,2014-10-01T05:30:00,7,28092697,201908
OK,96,44,922,96,2014-10-01T05:35:00,4,28093138,201908
OK,106,40,922,106,2014-10-01T05:40:00,6,28093569,201908
OK,106,40,922,106,2014-10-01T05:45:00,8,28094018,201908
OK,105,40,922,105,2014-10-01T05:50:00,9,28094429,201908
OK,114,37,922,114,2014-10-01T05:55:00,7,28094874,201908
OK,138,31,922,138,2014-10-01T06:00:00,5,28095321,201908
OK,128,33,922,128,2014-10-01T06:05:00,4,28095770,201908
OK,90,47,922,90,2014-10-01T06:10:00,6,28096183,201908
OK,97,44,922,97,2014-10-01T06:15:00,9,28096632,201908
OK,101,42,922,101,2014-10-01T06:20:00,10,28097066,201908
OK,103,41,922,103,2014-10-01T06:25:00,8,28097515,201908
OK,136,31,922,136,2014-10-01T06:30:00,9,28097964,201908
OK,135,31,922,135,2014-10-01T06:35:00,6,28098401,201908
OK,88,48,922,88,2014-10-01T06:40:00,3,28098845,201908
OK,102,42,922,102,2014-10-01T06:45:00,6,28099293,201908
OK,100,42,922,100,2014-10-01T06:50:00,6,28099636,201908
OK,96,44,922,96,2014-10-01T06:55:00,6,28100085,201908
OK,103,41,922,103,2014-10-01T07:00:00,4,28100392,201908
OK,110,38,922,110,2014-10-01T07:05:00,6,28100841,201908
OK,107,40,922,107,2014-10-01T07:10:00,7,28101212,201908
OK,100,42,922,100,2014-10-01T07:15:00,8,28101661,201908
OK,92,46,922,92,2014-10-01T07:20:00,8,28102097,201908
OK,112,38,922,112,2014-10-01T07:25:00,7,28102546,201908
OK,125,34,922,125,2014-10-01T07:30:00,4,28102974,201908
OK,122,35,922,122,2014-10-01T07:35:00,1,28103420,201908
OK,105,40,922,105,2014-10-01T07:40:00,2,28103865,201908
OK,106,40,922,106,2014-10-01T07:45:00,3,28104310,201908
OK,159,26,922,159,2014-10-01T07:50:00,1,28104751,201908
OK,97,44,922,97,2014-10-01T07:55:00,6,28105196,201908
OK,99,43,922,99,2014-10-01T08:00:00,9,28105636,201908
OK,99,43,922,99,2014-10-01T08:05:00,4,28106085,201908
OK,80,53,922,80,2014-10-01T08:10:00,4,28106522,201908
OK,86,49,922,86,2014-10-01T08:15:00,4,28106928,201908
OK,104,41,922,104,2014-10-01T08:20:00,5,28107360,201908
OK,116,36,922,116,2014-10-01T08:25:00,4,28107809,201908
OK,86,49,922,86,2014-10-01T08:30:00,7,28108248,201908
OK,111,38,922,111,2014-10-01T08:35:00,7,28108697,201908
OK,120,35,922,120,2014-10-01T08:40:00,2,28109125,201908
OK,93,46,922,93,2014-10-01T08:45:00,4,28109574,201908
OK,79,54,922,79,2014-10-01T08:50:00,5,28109917,201908
OK,91,47,922,91,2014-10-01T08:55:00,9,28110366,201908
OK,82,52,922,82,2014-10-01T09:00:00,9,28110789,201908
OK,81,52,922,81,2014-10-01T09:05:00,9,28111238,201908
OK,83,51,922,83,2014-10-01T09:10:00,9,28111667,201908
OK,106,40,922,106,2014-10-01T09:15:00,5,28112116,201908
OK,106,40,922,106,2014-10-01T09:20:00,5,28112457,201908
OK,72,59,922,72,2014-10-01T09:25:00,3,28112906,201908
OK,73,58,922,73,2014-10-01T09:30:00,6,28113330,201908
OK,84,51,922,84,2014-10-01T09:35:00,9,28113779,201908
OK,93,46,922,93,2014-10-01T09:40:00,8,28114211,201908
OK,108,39,922,108,2014-10-01T09:45:00,3,28114660,201908
OK,107,40,922,107,2014-10-01T09:50:00,4,28115014,201908
OK,96,44,922,96,2014-10-01T09:55:00,6,28115463,201908
OK,76,56,922,76,2014-10-01T10:00:00,5,28115875,201908
OK,87,49,922,87,2014-10-01T10:05:00,7,28116324,201908
OK,77,55,922,77,2014-10-01T10:10:00,7,28116732,201908
OK,74,57,922,74,2014-10-01T10:15:00,3,28117181,201908
OK,89,48,922,89,2014-10-01T10:20:00,1,28117606,201908
OK,78,54,922,78,2014-10-01T10:25:00,4,28118055,201908
OK,79,54,922,79,2014-10-01T10:30:00,3,28118500,201908
OK,81,52,922,81,2014-10-01T10:35:00,5,28118947,201908
OK,88,48,922,88,2014-10-01T10:40:00,7,28119391,201908
OK,97,44,922,97,2014-10-01T10:45:00,4,28119839,201908
OK,97,44,922,97,2014-10-01T10:50:00,9,28120287,201908
OK,94,45,922,94,2014-10-01T10:55:00,12,28120736,201908
OK,95,45,922,95,2014-10-01T11:00:00,7,28121119,201908
OK,80,53,922,80,2014-10-01T11:05:00,5,28121568,201908
OK,66,64,922,66,2014-10-01T11:10:00,8,28122006,201908
OK,70,61,922,70,2014-10-01T11:15:00,6,28122455,201908
OK,139,30,922,139,2014-10-01T11:20:00,5,28122896,201908
OK,134,31,922,134,2014-10-01T11:25:00,6,28123345,201908
OK,87,49,922,87,2014-10-01T11:30:00,5,28123777,201908
OK,72,59,922,72,2014-10-01T11:35:00,3,28124226,201908
OK,101,42,922,101,2014-10-01T11:40:00,7,28124628,201908
OK,104,41,922,104,2014-10-01T11:45:00,6,28125077,201908
OK,128,33,922,128,2014-10-01T11:50:00,5,28125506,201908
OK,99,43,922,99,2014-10-01T11:55:00,6,28125955,201908
OK,98,43,922,98,2014-10-01T12:00:00,8,28126307,201908
OK,121,35,922,121,2014-10-01T12:05:00,5,28126756,201908
OK,122,35,922,122,2014-10-01T12:10:00,2,28127205,201908
OK,72,59,922,72,2014-10-01T12:15:00,2,28127654,201908
OK,119,36,922,119,2014-10-01T12:20:00,8,28128082,201908
OK,113,37,922,113,2014-10-01T12:25:00,9,28128531,201908
OK,94,45,922,94,2014-10-01T12:30:00,11,28128966,201908
OK,100,42,922,100,2014-10-01T12:35:00,11,28129415,201908
OK,98,43,922,98,2014-10-01T12:40:00,9,28129849,201908
OK,98,43,922,98,2014-10-01T12:45:00,5,28130298,201908
OK,97,44,922,97,2014-10-01T12:50:00,2,28130726,201908
OK,129,33,922,129,2014-10-01T12:55:00,3,28131175,201908
OK,83,51,922,83,2014-10-01T13:00:00,14,28131612,201908
OK,76,56,922,76,2014-10-01T13:05:00,11,28132061,201908
OK,76,56,922,76,2014-10-01T13:10:00,3,28132499,201908
OK,90,47,922,90,2014-10-01T13:15:00,3,28132946,201908
OK,94,45,922,94,2014-10-01T13:20:00,6,28133384,201908
OK,91,47,922,91,2014-10-01T13:25:00,7,28133833,201908
OK,85,50,922,85,2014-10-01T13:30:00,4,28134272,201908
OK,126,34,922,126,2014-10-01T13:35:00,1,28134721,201908
OK,126,34,922,126,2014-10-01T13:40:00,0,28135140,201908
OK,77,55,922,77,2014-10-01T13:45:00,1,28135589,201908
OK,77,55,922,77,2014-10-01T13:50:00,5,28136026,201908
OK,83,51,922,83,2014-10-01T13:55:00,5,28136475,201908
OK,128,33,922,128,2014-10-01T14:00:00,6,28136915,201908
OK,111,38,922,111,2014-10-01T14:05:00,8,28137364,201908
OK,103,41,922,103,2014-10-01T14:10:00,6,28137798,201908
OK,118,36,922,118,2014-10-01T14:15:00,5,28138247,201908
OK,134,31,922,134,2014-10-01T14:20:00,5,28138675,201908
OK,91,47,922,91,2014-10-01T14:25:00,5,28139124,201908
OK,89,48,922,89,2014-10-01T14:30:00,6,28139535,201908
OK,65,65,922,65,2014-10-01T14:35:00,2,28139984,201908
OK,83,51,922,83,2014-10-01T14:40:00,2,28140426,201908
OK,83,51,922,83,2014-10-01T14:45:00,4,28140875,201908
OK,78,54,922,78,2014-10-01T14:50:00,8,28141301,201908
OK,90,47,922,90,2014-10-01T14:55:00,9,28141750,201908
OK,87,49,922,87,2014-10-01T15:00:00,6,28142178,201908
OK,81,52,922,81,2014-10-01T15:05:00,5,28142627,201908
OK,81,52,922,81,2014-10-01T15:10:00,6,28143054,201908
OK,77,55,922,77,2014-10-01T15:15:00,5,28143503,201908
OK,75,57,922,75,2014-10-01T15:20:00,5,28143951,201908
OK,88,48,922,88,2014-10-01T15:25:00,3,28144400,201908
OK,82,52,922,82,2014-10-01T15:30:00,2,28144822,201908
OK,64,66,922,64,2014-10-01T15:35:00,1,28145235,201908
OK,73,58,922,73,2014-10-01T15:40:00,1,28145684,201908
OK,73,58,922,73,2014-10-01T15:45:00,1,28146133,201908
OK,73,58,922,73,2014-10-01T15:50:00,0,28146582,201908
OK,71,60,922,71,2014-10-01T15:55:00,1,28146990,201908
OK,71,60,922,71,2014-10-01T16:00:00,0,28147434,201908
OK,68,63,922,68,2014-10-01T16:05:00,1,28147883,201908
OK,68,63,922,68,2014-10-01T16:10:00,1,28148284,201908
OK,114,37,922,114,2014-10-01T16:15:00,1,28148733,201908
OK,68,63,922,68,2014-10-01T16:20:00,0,28149172,201908
OK,106,40,922,106,2014-10-01T16:25:00,2,28149621,201908
OK,84,51,922,84,2014-10-01T16:30:00,3,28150047,201908
OK,83,51,922,83,2014-10-01T16:35:00,4,28150496,201908
OK,106,40,922,106,2014-10-01T16:40:00,3,28150914,201908
OK,130,32,922,130,2014-10-01T16:45:00,2,28151363,201908
OK,133,32,922,133,2014-10-01T16:50:00,0,28151812,201908
OK,98,43,922,98,2014-10-01T17:00:00,3,28152261,201908
OK,108,39,922,108,2014-10-01T17:05:00,4,28152707,201908
OK,67,63,922,67,2014-10-01T17:10:00,5,28153154,201908
OK,64,66,922,64,2014-10-01T17:15:00,4,28153603,201908
OK,65,65,922,65,2014-10-01T17:20:00,2,28154013,201908
OK,66,64,922,66,2014-10-01T17:25:00,1,28154462,201908
OK,91,47,922,91,2014-10-01T17:30:00,1,28154904,201908
OK,86,49,922,86,2014-10-01T17:35:00,1,28155352,201908
OK,86,49,922,86,2014-10-01T17:40:00,1,28155770,201908
OK,86,49,922,86,2014-10-01T17:45:00,0,28156219,201908
OK,86,49,922,86,2014-10-01T17:50:00,0,28156668,201908
OK,86,49,922,86,2014-10-01T17:55:00,0,28157106,201908
OK,132,32,922,132,2014-10-01T18:00:00,1,28157536,201908
OK,132,32,922,132,2014-10-01T18:05:00,1,28157984,201908
OK,132,32,922,132,2014-10-01T18:10:00,0,28158428,201908
OK,132,32,922,132,2014-10-01T18:15:00,0,28158874,201908
OK,75,57,922,75,2014-10-01T18:20:00,3,28159320,201908
OK,132,32,922,132,2014-10-01T18:25:00,0,28159655,201908
OK,132,32,922,132,2014-10-01T18:30:00,0,28160104,201908
OK,132,32,922,132,2014-10-01T18:35:00,0,28160553,201908
OK,132,32,922,132,2014-10-01T18:40:00,0,28160991,201908
OK,158,27,922,158,2014-10-01T18:45:00,2,28161440,201908
OK,158,27,922,158,2014-10-01T18:50:00,2,28161857,201908
OK,158,27,922,158,2014-10-01T18:55:00,0,28162306,201908
OK,158,27,922,158,2014-10-01T19:00:00,0,28162700,201908
OK,73,58,922,73,2014-10-01T19:05:00,1,28163139,201908
OK,73,58,922,73,2014-10-01T19:10:00,0,28163587,201908
OK,73,58,922,73,2014-10-01T19:15:00,0,28164036,201908
OK,73,58,922,73,2014-10-01T19:20:00,0,28164467,201908
OK,73,58,922,73,2014-10-01T19:25:00,0,28164916,201908
OK,73,58,922,73,2014-10-01T19:30:00,0,28165341,201908
OK,86,49,922,86,2014-10-01T19:35:00,1,28165789,201908
OK,86,49,922,86,2014-10-01T19:40:00,0,28166230,201908
OK,86,49,922,86,2014-10-01T19:45:00,0,28166592,201908
OK,86,49,922,86,2014-10-01T19:50:00,0,28167041,201908
OK,86,49,922,86,2014-10-01T19:55:00,0,28167470,201908
OK,85,50,922,85,2014-10-01T20:00:00,1,28167903,201908
OK,85,50,922,85,2014-10-01T20:05:00,1,28168352,201908
OK,85,50,922,85,2014-10-01T20:10:00,0,28168797,201908
OK,85,50,922,85,2014-10-01T20:15:00,0,28169246,201908
OK,85,50,922,85,2014-10-01T20:20:00,0,28169694,201908
OK,85,50,922,85,2014-10-01T20:25:00,0,28170120,201908
OK,78,54,922,78,2014-10-01T20:30:00,1,28170565,201908
OK,70,61,922,70,2014-10-01T20:35:00,3,28171013,201908
OK,69,62,922,69,2014-10-01T20:40:00,2,28171450,201908
OK,82,52,922,82,2014-10-01T20:45:00,1,28171896,201908
OK,79,54,922,79,2014-10-01T20:50:00,1,28172344,201908
OK,85,50,922,85,2014-10-01T20:55:00,3,28172790,201908
OK,110,38,922,110,2014-10-01T21:00:00,2,28173236,201908
OK,136,31,922,136,2014-10-01T21:05:00,0,28173685,201908
OK,136,31,922,136,2014-10-01T21:10:00,0,28174126,201908
OK,136,31,922,136,2014-10-01T21:15:00,0,28174575,201908
OK,136,31,922,136,2014-10-01T21:20:00,0,28175001,201908
OK,136,31,922,136,2014-10-01T21:25:00,0,28175397,201908
OK,136,31,922,136,2014-10-01T21:30:00,0,28175846,201908
OK,136,31,922,136,2014-10-01T21:35:00,0,28176295,201908
OK,136,31,922,136,2014-10-01T21:40:00,0,28176744,201908
OK,136,31,922,136,2014-10-01T21:45:00,0,28177100,201908
OK,136,31,922,136,2014-10-01T21:50:00,0,28177540,201908
OK,136,31,922,136,2014-10-01T21:55:00,0,28177986,201908
OK,136,31,922,136,2014-10-01T22:00:00,0,28178435,201908
OK,136,31,922,136,2014-10-01T22:05:00,0,28178882,201908
OK,102,42,922,102,2014-10-01T22:10:00,1,28179316,201908
OK,102,42,922,102,2014-10-01T22:15:00,0,28179759,201908
OK,102,42,922,102,2014-10-01T22:20:00,0,28180206,201908
OK,102,42,922,102,2014-10-01T22:25:00,0,28180604,201908
OK,117,36,922,117,2014-10-01T22:30:00,1,28181053,201908
OK,117,36,922,117,2014-10-01T22:35:00,1,28181477,201908
OK,117,36,922,117,2014-10-01T22:40:00,0,28181925,201908
OK,117,36,922,117,2014-10-01T22:45:00,0,28182372,201908
OK,117,36,922,117,2014-10-01T22:50:00,0,28182821,201908
OK,117,36,922,117,2014-10-01T22:55:00,0,28183238,201908
OK,117,36,922,117,2014-10-01T23:00:00,0,28183671,201908
OK,117,36,922,117,2014-10-01T23:05:00,0,28184116,201908
OK,94,45,922,94,2014-10-01T23:10:00,1,28184565,201908
OK,94,45,922,94,2014-10-01T23:15:00,0,28185000,201908
OK,94,45,922,94,2014-10-01T23:20:00,0,28185448,201908
OK,94,45,922,94,2014-10-01T23:25:00,0,28185879,201908
OK,94,45,922,94,2014-10-01T23:30:00,0,28186271,201908
OK,94,45,922,94,2014-10-01T23:40:00,0,28187118,201908
OK,94,45,922,94,2014-10-01T23:55:00,0,28188450,201908
OK,94,45,922,94,2014-10-02T00:00:00,0,28188886,201908
OK,94,45,922,94,2014-10-02T00:05:00,0,28189335,201908
OK,94,45,922,94,2014-10-02T00:10:00,0,28189757,201908
OK,94,45,922,94,2014-10-02T00:15:00,0,28190206,201908
OK,94,45,922,94,2014-10-02T00:20:00,0,28190559,201908
OK,94,45,922,94,2014-10-02T00:30:00,0,28191457,201908
OK,94,45,922,94,2014-10-02T00:35:00,0,28191763,201908
OK,94,45,922,94,2014-10-02T00:40:00,0,28192212,201908
OK,94,45,922,94,2014-10-02T00:45:00,0,28192645,201908
OK,94,45,922,94,2014-10-02T00:50:00,0,28193089,201908
OK,94,45,922,94,2014-10-02T00:55:00,0,28193456,201908
OK,71,60,922,71,2014-10-02T01:05:00,0,28194354,201908
OK,71,60,922,71,2014-10-02T01:10:00,0,28194803,201908
OK,71,60,922,71,2014-10-02T01:15:00,0,28195043,201908
OK,71,60,922,71,2014-10-02T01:20:00,0,28195488,201908
OK,71,60,922,71,2014-10-02T01:30:00,0,28195937,201908
OK,71,60,922,71,2014-10-02T01:35:00,0,28196670,201908
OK,71,60,922,71,2014-10-02T01:40:00,0,28197093,201908
OK,71,60,922,71,2014-10-02T01:45:00,0,28197542,201908
OK,71,60,922,71,2014-10-02T01:50:00,0,28197990,201908
OK,71,60,922,71,2014-10-02T01:55:00,0,28198438,201908
OK,71,60,922,71,2014-10-02T02:00:00,0,28198887,201908
OK,71,60,922,71,2014-10-02T02:05:00,0,28199259,201908
OK,71,60,922,71,2014-10-02T02:10:00,0,28199701,201908
OK,71,60,922,71,2014-10-02T02:15:00,0,28200143,201908
OK,71,60,922,71,2014-10-02T02:20:00,0,28200586,201908
OK,71,60,922,71,2014-10-02T02:25:00,0,28201035,201908
OK,87,49,922,87,2014-10-02T02:30:00,2,28201466,201908
OK,87,49,922,87,2014-10-02T02:45:00,0,28202364,201908
OK,87,49,922,87,2014-10-02T02:50:00,0,28202806,201908
OK,87,49,922,87,2014-10-02T02:55:00,0,28203254,201908
OK,111,38,922,111,2014-10-02T03:00:00,2,28203689,201908
OK,111,38,922,111,2014-10-02T03:10:00,0,28204138,201908
OK,111,38,922,111,2014-10-02T03:25:00,0,28204587,201908
OK,111,38,922,111,2014-10-02T03:30:00,0,28205036,201908
OK,111,38,922,111,2014-10-02T03:35:00,0,28205464,201908
OK,111,38,922,111,2014-10-02T03:40:00,0,28205911,201908
OK,72,59,922,72,2014-10-02T03:45:00,0,28206294,201908
OK,72,59,922,72,2014-10-02T03:55:00,0,28207192,201908
OK,72,59,922,72,2014-10-02T04:00:00,0,28207612,201908
OK,72,59,922,72,2014-10-02T04:05:00,0,28208060,201908
OK,76,56,922,76,2014-10-02T04:10:00,1,28208487,201908
OK,76,56,922,76,2014-10-02T04:15:00,0,28208936,201908
OK,84,51,922,84,2014-10-02T04:20:00,1,28209374,201908
OK,84,51,922,84,2014-10-02T04:25:00,0,28209823,201908
OK,104,41,922,104,2014-10-02T04:30:00,3,28210246,201908
OK,104,41,922,104,2014-10-02T04:35:00,3,28210695,201908
OK,80,53,922,80,2014-10-02T04:40:00,1,28211120,201908
OK,80,53,922,80,2014-10-02T04:45:00,0,28211564,201908
OK,80,53,922,80,2014-10-02T04:50:00,0,28211942,201908
OK,84,51,922,84,2014-10-02T04:55:00,1,28212391,201908
OK,84,51,922,84,2014-10-02T05:00:00,0,28212820,201908
OK,71,60,922,71,2014-10-02T05:05:00,3,28213269,201908
OK,71,60,922,71,2014-10-02T05:10:00,1,28213707,201908
OK,106,40,922,106,2014-10-02T05:15:00,4,28214156,201908
OK,121,35,922,121,2014-10-02T05:20:00,2,28214569,201908
OK,113,37,922,113,2014-10-02T05:25:00,6,28215018,201908
OK,65,65,922,65,2014-10-02T05:30:00,1,28215434,201908
OK,65,65,922,65,2014-10-02T05:35:00,0,28215883,201908
OK,127,33,922,127,2014-10-02T05:40:00,5,28216226,201908
OK,70,61,922,70,2014-10-02T05:45:00,1,28216662,201908
OK,70,61,922,70,2014-10-02T05:50:00,0,28217109,201908
OK,80,53,922,80,2014-10-02T05:55:00,6,28217558,201908
OK,99,43,922,99,2014-10-02T06:00:00,7,28217997,201908
OK,94,45,922,94,2014-10-02T06:05:00,1,28218446,201908
OK,94,45,922,94,2014-10-02T06:10:00,1,28218866,201908
OK,103,41,922,103,2014-10-02T06:15:00,6,28219315,201908
OK,108,39,922,108,2014-10-02T06:20:00,6,28219688,201908
OK,111,38,922,111,2014-10-02T06:25:00,7,28220137,201908
OK,119,36,922,119,2014-10-02T06:30:00,10,28220571,201908
OK,113,37,922,113,2014-10-02T06:35:00,12,28221020,201908
OK,93,46,922,93,2014-10-02T06:40:00,11,28221401,201908
OK,90,47,922,90,2014-10-02T06:45:00,6,28221687,201908
OK,92,46,922,92,2014-10-02T07:00:00,4,28222281,201908
OK,81,52,922,81,2014-10-02T07:05:00,2,28222730,201908
OK,116,36,922,116,2014-10-02T07:10:00,1,28223161,201908
OK,116,36,922,116,2014-10-02T07:15:00,1,28223597,201908
OK,116,36,922,116,2014-10-02T07:20:00,0,28224044,201908
OK,80,53,922,80,2014-10-02T07:25:00,3,28224399,201908
OK,78,54,922,78,2014-10-02T07:30:00,2,28224848,201908
OK,99,43,922,99,2014-10-02T07:35:00,4,28225297,201908
OK,109,39,922,109,2014-10-02T07:40:00,2,28225619,201908
OK,110,38,922,110,2014-10-02T07:50:00,9,28226509,201908
OK,98,43,922,98,2014-10-02T07:55:00,5,28226958,201908
OK,98,43,922,98,2014-10-02T08:00:00,2,28227373,201908
OK,81,52,922,81,2014-10-02T08:05:00,8,28227822,201908
OK,74,57,922,74,2014-10-02T08:10:00,3,28228181,201908
OK,81,52,922,81,2014-10-02T08:15:00,4,28228630,201908
OK,81,52,922,81,2014-10-02T08:20:00,3,28229040,201908
OK,103,41,922,103,2014-10-02T08:25:00,5,28229489,201908
OK,102,42,922,102,2014-10-02T08:30:00,4,28229839,201908
OK,84,51,922,84,2014-10-02T08:35:00,4,28230288,201908
OK,84,51,922,84,2014-10-02T08:40:00,2,28230654,201908
OK,84,51,922,84,2014-10-02T08:45:00,0,28231103,201908
OK,94,45,922,94,2014-10-02T08:50:00,10,28231526,201908
OK,96,44,922,96,2014-10-02T08:55:00,5,28231975,201908
OK,121,35,922,121,2014-10-02T09:00:00,3,28232317,201908
OK,74,57,922,74,2014-10-02T09:10:00,0,28232766,201908
OK,131,32,922,131,2014-10-02T09:15:00,8,28233215,201908
OK,131,32,922,131,2014-10-02T09:20:00,4,28233639,201908
OK,117,36,922,117,2014-10-02T09:25:00,4,28234088,201908
OK,146,29,922,146,2014-10-02T09:30:00,0,28234421,201908
OK,126,34,922,126,2014-10-02T09:35:00,5,28234870,201908
OK,113,37,922,113,2014-10-02T09:40:00,4,28235297,201908
OK,101,42,922,101,2014-10-02T09:45:00,4,28235746,201908
OK,84,51,922,84,2014-10-02T09:50:00,1,28236189,201908
OK,99,43,922,99,2014-10-02T09:55:00,4,28236636,201908
OK,107,40,922,107,2014-10-02T10:00:00,2,28237039,201908
OK,107,40,922,107,2014-10-02T10:05:00,0,28237487,201908
OK,95,45,922,95,2014-10-02T10:10:00,4,28237935,201908
OK,64,66,922,64,2014-10-02T10:15:00,5,28238382,201908
OK,74,57,922,74,2014-10-02T10:20:00,9,28238823,201908
OK,90,47,922,90,2014-10-02T10:25:00,4,28239272,201908
OK,79,54,922,79,2014-10-02T10:30:00,1,28239702,201908
OK,93,46,922,93,2014-10-02T10:35:00,8,28240151,201908
OK,71,60,922,71,2014-10-02T10:40:00,7,28240595,201908
OK,98,43,922,98,2014-10-02T10:45:00,4,28241044,201908
OK,92,46,922,92,2014-10-02T10:50:00,2,28241476,201908
OK,116,36,922,116,2014-10-02T10:55:00,6,28241924,201908
OK,107,40,922,107,2014-10-02T11:00:00,3,28242320,201908
OK,104,41,922,104,2014-10-02T11:05:00,0,28242769,201908
OK,110,38,922,110,2014-10-02T11:10:00,2,28243218,201908
OK,99,43,922,99,2014-10-02T11:15:00,3,28243551,201908
OK,79,54,922,79,2014-10-02T11:20:00,7,28243981,201908
OK,82,52,922,82,2014-10-02T11:25:00,4,28244410,201908
OK,76,56,922,76,2014-10-02T11:30:00,0,28244859,201908
OK,94,45,922,94,2014-10-02T11:35:00,4,28245308,201908
OK,97,44,922,97,2014-10-02T11:40:00,3,28245714,201908
OK,97,44,922,97,2014-10-02T11:45:00,0,28246163,201908
OK,80,53,922,80,2014-10-02T11:50:00,7,28246600,201908
OK,80,53,922,80,2014-10-02T11:55:00,9,28247049,201908
OK,83,51,922,83,2014-10-02T12:00:00,4,28247495,201908
OK,77,55,922,77,2014-10-02T12:05:00,1,28247925,201908
OK,77,55,922,77,2014-10-02T12:10:00,0,28248374,201908
OK,87,49,922,87,2014-10-02T12:15:00,5,28248821,201908
OK,81,52,922,81,2014-10-02T12:20:00,2,28249249,201908
OK,109,39,922,109,2014-10-02T12:25:00,7,28249693,201908
OK,112,38,922,112,2014-10-02T12:30:00,6,28250112,201908
OK,89,48,922,89,2014-10-02T12:35:00,5,28250510,201908
OK,70,61,922,70,2014-10-02T12:45:00,4,28251290,201908
OK,112,38,922,112,2014-10-02T13:20:00,7,28251835,201908
OK,101,42,922,101,2014-10-02T13:30:00,3,28252419,201908
OK,102,42,922,102,2014-10-02T13:35:00,0,28252861,201908
OK,102,42,922,102,2014-10-02T13:40:00,0,28253278,201908
OK,190,22,922,190,2014-10-02T13:45:00,6,28253727,201908
OK,235,18,922,235,2014-10-02T13:50:00,4,28254132,201908
OK,259,16,922,259,2014-10-02T13:55:00,2,28254453,201908
OK,124,34,922,124,2014-10-02T14:10:00,6,28255030,201908
OK,122,35,922,122,2014-10-02T14:15:00,6,28255479,201908
OK,133,32,922,133,2014-10-02T14:20:00,6,28255907,201908
OK,87,49,922,87,2014-10-02T14:25:00,3,28256356,201908
OK,103,41,922,103,2014-10-02T14:30:00,5,28256784,201908
OK,98,43,922,98,2014-10-02T14:35:00,7,28257233,201908
OK,117,36,922,117,2014-10-02T14:40:00,5,28257674,201908
OK,124,34,922,124,2014-10-02T14:45:00,1,28258122,201908
OK,124,34,922,124,2014-10-02T14:50:00,1,28258555,201908
OK,78,54,922,78,2014-10-02T14:55:00,1,28259001,201908
OK,75,57,922,75,2014-10-02T15:00:00,3,28259450,201908
OK,93,46,922,93,2014-10-02T15:05:00,1,28259897,201908
OK,85,50,922,85,2014-10-02T15:10:00,1,28260330,201908
OK,85,50,922,85,2014-10-02T15:15:00,1,28260779,201908
OK,85,50,922,85,2014-10-02T15:20:00,0,28261219,201908
OK,108,39,922,108,2014-10-02T15:25:00,2,28261601,201908
OK,125,34,922,125,2014-10-02T15:30:00,1,28262031,201908
OK,80,53,922,80,2014-10-02T15:40:00,1,28262924,201908
OK,66,64,922,66,2014-10-02T15:45:00,1,28263362,201908